Torna al catalogo

SL-12 DEB

LostHEO
NORAD 28985·DEBRIS·🇷🇺 Russia

Lanciato Jul 30, 1992 da Baikonur Cosmodrome

Loading…

Prossimi Passaggi (prossime 24 ore)

TLE

ObsoletoSource: Space-Track

Epoca: Jul 23, 2017, 18:33 UTC

1 28985U 92047AN  17204.77302166 -.00000011  00000-0  00000-0 0  9993
2 28985  64.0875 130.0837 3771459 322.9356  16.1756  6.52731338268361

Traccia SL-12 DEB in tempo reale con AllMySat

Download on the App Store